Location: Trout Lake
(45.9980°N, 121.5270°W)
Time: 19:19:41
(UTC-08:00)

YAOGAN 1 - Pass Details

Date: 06 December 2023
Orbit: 613 x 615 km, 97.8° (Epoch: 22 February)

Event Time Altitude Azimuth Distance (km) Brightness Sun altitude
Exits shadow 18:29:23 22° 6° (N) 1,369 4.1 -21.4°
Drops below altitude 10° 18:31:00 10° 357° (N) 1,984 5.1 -21.7°
Sets 18:33:14 0° 352° (N) 2,895 6.0 -22.1°
